Weather History for KPNE - June, 2012

Change the Weather History Date:

Sunday, June 24, 2012

  Actual Average Record
Temperature  
Mean Temperature 75 °F -  
Max Temperature 86 °F 82 °F 97 °F (2010)
Min Temperature 64 °F 63 °F 59 °F (1999)
Cooling Degree Days 10    
Growing Degree Days 25 (Base 50)    
Moisture  
Dew Point 57 °F    
Average Humidity 52    
Maximum Humidity 73    
Minimum Humidity 34    
Precipitation  
Precipitation 0.00 in - - ()
Sea Level Pressure  
Sea Level Pressure 29.98 in    
Wind  
Wind Speed 3 mph (WNW)    
Max Wind Speed 9 mph    
Max Gust Speed -    
Visibility 10 miles    
Events Rain    
Averages and records for this station are not official NWS values.
T = Trace of Precipitation, MM = Missing Value Source: NWS Daily Summary

Daily Weather History Graph

Daily Weather History Graph

Search for Another Location

Airport or City:

Trip Planner

Search our weather history database for the weather conditions in past years. The results will help you decide how hot, cold, wet, or windy it might be!

Date:

Astronomy

Jun. 24, 2012 Rise Set
Actual Time 5:32 AM EDT 8:33 PM EDT
Civil Twilight 4:59 AM EDT 9:06 PM EDT
Nautical Twilight 4:17 AM EDT 9:47 PM EDT
Astronomical Twilight 3:28 AM EDT 10:36 PM EDT
Moon 10:35 AM EDT (6/24) 11:30 PM EDT (6/24)
Length of Visible Light 16h 06m
Length of Day
15h 01m
Waxing Crescent, 24% of the Moon is Illuminated
Jun 24
Waxing Crescent
Jun 26
First Quarter
Jul 3
Full
Jul 10
Last Quarter
Jul 19
New

Hourly Weather History & Observations

Time (EDT) Temp. Heat Index Dew Point Humidity Pressure Visibility Wind Dir Wind Speed Gust Speed Precip Events Conditions
12:54 AM 68.0 °F - 55.9 °F 65% 30.01 in 10.0 mi Calm Calm - N/A   Clear
1:54 AM 68.0 °F - 55.9 °F 65% 30.02 in 10.0 mi Calm Calm - N/A   Clear
2:54 AM 68.0 °F - 55.4 °F 64% 30.02 in 10.0 mi NW 3.5 mph - N/A   Clear
3:54 AM 66.2 °F - 55.4 °F 68% 30.02 in 10.0 mi NNW 3.5 mph - N/A   Clear
4:54 AM 64.0 °F - 55.0 °F 73% 30.02 in 10.0 mi NNW 6.9 mph - N/A   Clear
5:54 AM 66.9 °F - 55.0 °F 66% 30.03 in 10.0 mi Calm Calm - N/A   Clear
6:54 AM 69.1 °F - 57.9 °F 68% 30.03 in 10.0 mi Calm Calm - N/A   Clear
7:54 AM 73.9 °F - 57.9 °F 57% 30.04 in 10.0 mi Calm Calm - N/A   Clear
8:54 AM 75.0 °F - 57.0 °F 53% 30.04 in 10.0 mi ENE 4.6 mph - N/A   Clear
9:54 AM 78.1 °F - 59.0 °F 52% 30.03 in 10.0 mi ENE 5.8 mph - N/A   Clear
10:54 AM 81.0 °F 81.1 °F 57.9 °F 45% 30.02 in 10.0 mi NE 5.8 mph - N/A   Clear
11:54 AM 82.9 °F 82.6 °F 57.9 °F 42% 30.01 in 10.0 mi NE 4.6 mph - N/A   Clear
12:54 PM 82.9 °F 82.0 °F 55.0 °F 38% 30.00 in 10.0 mi Calm Calm - N/A   Scattered Clouds
1:54 PM 84.0 °F 82.5 °F 53.1 °F 34% 29.98 in 10.0 mi Calm Calm - N/A   Mostly Cloudy
2:54 PM 82.9 °F 82.1 °F 55.9 °F 39% 29.97 in 10.0 mi South 5.8 mph - N/A   Mostly Cloudy
3:54 PM 86.0 °F 84.9 °F 57.0 °F 37% 29.96 in 10.0 mi West 9.2 mph - N/A   Mostly Cloudy
4:54 PM 86.0 °F 84.9 °F 57.0 °F 37% 29.93 in 10.0 mi West 8.1 mph - N/A   Mostly Cloudy
5:54 PM 84.0 °F 83.3 °F 57.0 °F 40% 29.91 in 10.0 mi West 6.9 mph - N/A   Clear
6:54 PM 82.0 °F 81.7 °F 57.0 °F 42% 29.91 in 10.0 mi West 8.1 mph - N/A   Clear
7:54 PM 82.0 °F 81.7 °F 57.0 °F 42% 29.91 in 10.0 mi NW 3.5 mph - N/A   Clear
8:54 PM 81.0 °F 81.1 °F 57.9 °F 45% 29.91 in 10.0 mi SSW 6.9 mph - 0.00 in   Mostly Cloudy
9:54 PM 77.0 °F - 61.0 °F 58% 29.93 in 10.0 mi SSW 6.9 mph - 0.00 in Rain Light Rain
10:54 PM 77.0 °F - 60.1 °F 56% 29.92 in 10.0 mi Calm Calm - 0.00 in Rain Light Rain
11:54 PM 75.0 °F - 62.1 °F 64% 29.91 in 10.0 mi Calm Calm - N/A   Clear